SBPA Airport Information

Runway Information
Runway 11 Length 7480 ft width 138 ft
Elevation 11 ft Threshold 0 ft Heading 91
Runway 29 Length 7480 ft Width 138 ft
Elevation 11 ft Threshold 0 ft Heading 271
Airport Frequencies
Type APP Name PALEGRE AP Frequency 119 MHZ
Type ATIS Name ATIS Frequency 127.85 MHZ
Type GND Name GND Frequency 121.9 MHZ
Type TWR Name PALEGRE TW Frequency 118.1 MHZ
Airport Navaids
Type NDB Name Pestana Frequency 395 KHZ
Type NDB Name Guaiba Frequency 345 KHZ
Type NDB Name Salgado Frequency 315 KHZ
Type NDB Name Porto Alegre Frequency 330 KHZ
Type VOR-DME Name Porto Alegre Frequency 114000 KHZ
Airport Weather Information & NOTAM
ADDS - METARS form results

(0134 UTC 19 August 2018)
 
METAR text: SBPA 190100Z 10005KT CAVOK 15/13 Q1019
Conditions at: SBPA (PORTO ALEGRE/SAL, BR) observed 0100 UTC 19 August 2018
Temperature: 15.0°C (59°F)
Dewpoint: 13.0°C (55°F) [RH = 88%]
Pressure (altimeter): 30.09 inches Hg (1019.0 mb)
Winds: from the E (100 degrees) at 6 MPH (5 knots; 2.6 m/s)
Visibility: 6 or more miles (10+ km)
Ceiling: ceiling and visibility are OK
Clouds: unknown
Weather: no significant weather observed at this time